[[{"header":{"parameterUnit":"m.s-1","parameterCategory":1,"la1":30.2991,"la2":30.254,"lo1":-89.0895,"lo2":-89.0444,"dy":0.0017,"dx":0.0017,"nx":28,"ny":28,"refTime":"2025-01-11T09:00:00:Z","depth":0,"parameterNumber":2,"parameterNumberName":"U-component_of_WINDS"},"data":[0,0,0,0,0,0,0,0,0,0,0,0,0,0,0,0,0,0,0,0,0,0,0,0,0,0,0,0,0,0,0,0,0,0,0,0,0,0,0,0,0,0,0,0,0,0,0,0,0,0,0,0,0,0,0,0,0,0,-0.6096,-0.6097,0,-0.6111,-0.6111,-0.6111,-0.6146,-0.6146,-0.6147,-0.6148,-0.6161,-0.6161,-0.616,0,0,0,0,0,0,0,0,0,0,0,0,0,-0.6098,-0.6098,-0.6096,-0.6097,-0.6097,-0.6111,-0.6111,-0.6111,-0.6145,-0.6146,-0.6147,-0.6148,-0.6161,-0.6161,-0.616,0,0,0,0,0,0,0,0,0,0,0,0,0,-0.6103,-0.6098,-0.6096,-0.6116,-0.6118,-0.611,-0.6111,-0.6111,-0.6145,-0.6146,-0.6147,-0.6148,-0.6161,-0.6161,-0.616,-0.6135,0,0,-0.6159,-0.6159,0,0,0,0,0,0,0,0,-0.6103,-0.6103,-0.6113,-0.6114,-0.6116,-0.6127,-0.6116,-0.6119,-0.6145,-0.6135,-0.6148,-0.6149,-0.6149,-0.6149,-0.615,-0.6136,-0.6136,-0.6159,-0.6158,-0.6158,-0.6158,0,0,0,0,0,0,0,-0.6103,-0.6103,-0.6102,-0.6113,-0.6115,-0.6123,-0.6125,-0.6117,-0.6135,-0.6136,-0.6138,-0.6139,-0.615,-0.615,-0.615,-0.6137,-0.6159,-0.6158,-0.6158,-0.6158,-0.6103,-0.6102,0,0,0,0,0,0,-0.61,-0.6102,-0.6101,-0.6102,-0.6112,-0.6122,-0.6125,-0.6123,-0.6136,-0.6139,-0.6139,-0.6141,-0.615,-0.6151,-0.6151,-0.6123,-0.6158,-0.6158,-0.6157,-0.6104,-0.6103,-0.6102,0,0,0,0,0,0,-0.6099,-0.6099,-0.6101,-0.6103,-0.6104,-0.6121,-0.6119,-0.6122,-0.6123,-0.6138,-0.6141,-0.6135,-0.6151,-0.6152,-0.6139,-0.6123,-0.6157,-0.6157,-0.6106,-0.6104,-0.6102,-0.6066,0,0,0,0,0,0,-0.6099,-0.6099,-0.609,-0.6103,-0.6104,-0.6089,-0.6118,-0.6122,-0.6122,-0.6125,-0.6136,-0.6138,-0.6152,-0.614,-0.6138,-0.6123,-0.6157,-0.6107,-0.6105,-0.6103,-0.6068,-0.6063,-0.6058,0,0,0,0,0,-0.6099,-0.6079,-0.6089,-0.6089,-0.6093,-0.6088,-0.6089,-0.6105,-0.612,-0.6111,-0.6121,-0.6138,-0.6125,-0.6138,-0.6137,-0.6122,-0.6108,-0.6105,-0.6103,-0.607,-0.6064,-0.6058,0,0,0,0,0,0,-0.6063,-0.6081,-0.6093,-0.6075,-0.608,-0.6094,-0.6083,-0.6098,-0.6098,-0.6101,-0.6121,-0.6123,-0.6108,-0.6114,-0.6127,-0.6098,-0.6119,-0.6117,-0.6095,-0.6089,-0.6084,-0.6083,-0.6156,0,0,0,0,0,-0.6053,-0.6048,-0.6064,-0.6047,-0.6049,-0.6065,-0.6064,-0.6077,-0.6082,-0.6084,-0.6093,-0.6097,-0.6094,-0.6092,-0.609,-0.6069,-0.6072,-0.6058,-0.6053,-0.6049,-0.6046,-0.6035,-0.603,-0.6093,-0.6093,-0.6093,0,0,-0.6033,-0.6042,-0.6037,-0.604,-0.6045,-0.604,-0.6067,-0.606,-0.6056,-0.6083,-0.6072,-0.6078,-0.6084,-0.6068,-0.6061,-0.6072,-0.6029,-0.6045,-0.6042,-0.6042,-0.6032,-0.6026,-0.6021,-0.6091,-0.6092,-0.6092,0,0,-0.5992,-0.5999,-0.5986,-0.599,-0.5998,-0.6009,-0.6006,-0.6017,-0.6023,-0.6012,-0.6033,-0.6028,-0.6022,-0.6026,-0.6027,-0.5988,-0.6003,-0.5986,-0.596,-0.595,-0.5945,-0.594,-0.5926,-0.5921,-0.5984,-0.5984,-0.5984,0,-0.5966,-0.5958,-0.5977,-0.5969,-0.5969,-0.5994,-0.5981,-0.5984,-0.599,-0.599,-0.6003,-0.5996,-0.6002,-0.5987,-0.5977,-0.5977,-0.5974,-0.5985,-0.5944,-0.594,-0.5936,-0.5923,-0.5918,-0.5981,-0.5982,-0.5982,-0.5982,0,-0.5925,-0.592,-0.5908,-0.5914,-0.5914,-0.5903,-0.5919,-0.5916,-0.5929,-0.5938,-0.5927,-0.5935,-0.5935,-0.5932,-0.5944,-0.5918,-0.5925,-0.594,-0.5962,-0.5927,-0.5916,-0.5911,-0.5979,-0.5979,-0.598,-0.598,0,0,-0.5863,-0.5879,-0.5875,-0.5878,-0.5888,-0.5884,-0.5874,-0.5875,-0.5872,-0.5875,-0.5867,-0.5862,-0.5876,-0.5877,-0.589,-0.588,-0.5849,-0.5897,-0.5897,-0.5888,-0.5821,-0.581,-0.5804,-0.5859,-0.5858,-0.5858,-0.5821,0,-0.5825,-0.581,-0.5826,-0.5807,-0.5803,-0.5826,-0.5817,-0.5822,-0.5831,-0.5828,-0.5837,-0.5833,-0.5852,-0.5853,-0.5845,-0.5855,-0.5836,-0.5857,-0.5852,-0.5852,-0.585,-0.5797,-0.5785,-0.575,-0.5816,-0.5815,-0.5815,0,-0.5779,-0.5781,-0.5762,-0.5773,-0.5772,-0.5764,-0.5766,-0.5762,-0.5768,-0.5775,-0.5776,-0.5792,-0.5783,-0.5804,-0.5791,-0.5805,-0.5804,-0.5808,-0.5807,-0.5808,-0.5831,-0.5796,-0.5739,-0.5734,-0.5808,-0.5808,-0.5809,0,-0.5736,-0.5733,-0.5722,-0.5723,-0.5736,-0.573,-0.5735,-0.5742,-0.5741,-0.5743,-0.5743,-0.5743,-0.5743,-0.5742,-0.5757,-0.5771,-0.5743,-0.5765,-0.5748,-0.5748,-0.5741,-0.5741,-0.5683,-0.574,-0.574,-0.574,-0.574,0,-0.5692,-0.568,-0.5702,-0.5695,-0.5681,-0.57,-0.5686,-0.5693,-0.5699,-0.5694,-0.5714,-0.5708,-0.5728,-0.5724,-0.5735,-0.5723,-0.5723,-0.5728,-0.5731,-0.5726,-0.5726,-0.5726,-0.5729,-0.5739,-0.5739,-0.5739,-0.5739,0,-0.5642,-0.5656,-0.5645,-0.5658,-0.5661,-0.5651,-0.5662,-0.5655,-0.5665,-0.5658,-0.5657,-0.5673,-0.5669,-0.5684,-0.5682,-0.569,-0.5672,-0.5679,-0.567,-0.5672,-0.5655,-0.5656,-0.5594,-0.5587,-0.5648,-0.5648,-0.5647,0,-0.5613,-0.5604,-0.5616,-0.5614,-0.5618,-0.5614,-0.5614,-0.5632,-0.563,-0.5636,-0.5629,-0.5627,-0.5627,-0.562,-0.5631,-0.563,-0.5637,-0.5616,-0.5637,-0.5633,-0.5637,-0.5638,-0.5637,-0.5611,-0.5611,-0.561,-0.5609,0,-0.5561,-0.5568,-0.5567,-0.5568,-0.5567,-0.5569,-0.5572,-0.5569,-0.5588,-0.5586,-0.5582,-0.5582,-0.5581,-0.5579,-0.558,-0.5585,-0.56,-0.5603,-0.5599,-0.5594,-0.5589,-0.5591,-0.5658,-0.5604,-0.5605,-0.5605,-0.5605,-0.5605,-0.5521,-0.5514,-0.5521,-0.5519,-0.5523,-0.5526,-0.552,-0.553,-0.5527,-0.5528,-0.5539,-0.5534,-0.554,-0.5543,-0.5546,-0.5542,-0.5552,-0.5546,-0.5545,-0.5543,-0.554,-0.5589,-0.5542,-0.5543,-0.5543,-0.5543,-0.5543,0,-0.547,-0.5476,-0.5473,-0.5477,-0.5475,-0.549,-0.5494,-0.5492,-0.5487,-0.5491,-0.5491,-0.5487,-0.5485,-0.5495,-0.5495,-0.5489,-0.5496,-0.5489,-0.5489,-0.549,-0.5531,-0.5535,-0.5483,-0.5483,-0.5483,-0.5483,-0.5483,-0.5483,-0.5443,-0.5432,-0.544,-0.5431,-0.5438,-0.5433,-0.5434,-0.5436,-0.544,-0.5435,-0.5433,-0.544,-0.5447,-0.5447,-0.5446,-0.5449,-0.5448,-0.5438,-0.5443,-0.5481,-0.5487,-0.5493,-0.5496,-0.5437,-0.5437,-0.5403,-0.5402,-0.5402]},{"header":{"parameterUnit":"m.s-1","parameterCategory":1,"la1":30.2991,"la2":30.254,"lo1":-89.0895,"lo2":-89.0444,"dy":0.0017,"dx":0.0017,"nx":28,"ny":28,"refTime":"2025-01-11T09:00:00:Z","depth":0,"parameterNumber":3,"parameterNumberName":"V-component_of_WINDS"},"data":[0,0,0,0,0,0,0,0,0,0,0,0,0,0,0,0,0,0,0,0,0,0,0,0,0,0,0,0,0,0,0,0,0,0,0,0,0,0,0,0,0,0,0,0,0,0,0,0,0,0,0,0,0,0,0,0,0,0,-0.0231,-0.0232,0,-0.0324,-0.0325,-0.0327,-0.0395,-0.0395,-0.0396,-0.0396,-0.0493,-0.0494,-0.0496,0,0,0,0,0,0,0,0,0,0,0,0,0,-0.0112,-0.0114,-0.0231,-0.0232,-0.0233,-0.0324,-0.0325,-0.0327,-0.0395,-0.0395,-0.0396,-0.0397,-0.0492,-0.0494,-0.0497,0,0,0,0,0,0,0,0,0,0,0,0,0,-0.018,-0.0114,-0.0231,-0.0278,-0.0283,-0.0324,-0.0326,-0.0327,-0.0394,-0.0395,-0.0396,-0.0397,-0.0491,-0.0494,-0.0497,-0.0498,0,0,-0.0506,-0.0508,0,0,0,0,0,0,0,0,-0.0176,-0.0185,-0.027,-0.0275,-0.0281,-0.0349,-0.0319,-0.0385,-0.0394,-0.0352,-0.0396,-0.0397,-0.0444,-0.0451,-0.0467,-0.0503,-0.0507,-0.0507,-0.0508,-0.051,-0.0511,0,0,0,0,0,0,0,-0.0172,-0.0181,-0.0268,-0.0271,-0.0278,-0.0295,-0.0306,-0.0332,-0.0392,-0.0356,-0.0361,-0.0371,-0.0447,-0.0463,-0.0469,-0.0508,-0.0506,-0.0509,-0.0511,-0.0512,-0.0552,-0.0551,0,0,0,0,0,0,-0.0159,-0.0177,-0.0265,-0.0271,-0.023,-0.0296,-0.0308,-0.0326,-0.0392,-0.0403,-0.037,-0.0374,-0.0458,-0.0466,-0.0473,-0.048,-0.051,-0.0512,-0.0514,-0.0552,-0.0551,-0.0551,0,0,0,0,0,0,-0.0157,-0.0167,-0.0261,-0.0225,-0.0238,-0.0297,-0.0317,-0.0327,-0.0344,-0.0403,-0.0414,-0.0376,-0.0459,-0.0469,-0.0492,-0.0484,-0.0514,-0.0517,-0.0553,-0.0552,-0.0551,-0.0492,0,0,0,0,0,0,-0.0153,-0.0165,-0.0166,-0.0225,-0.024,-0.0278,-0.0316,-0.0329,-0.0349,-0.0355,-0.0411,-0.0421,-0.046,-0.0487,-0.0495,-0.0489,-0.0519,-0.0554,-0.0553,-0.0551,-0.0495,-0.0489,-0.0484,0,0,0,0,0,-0.0148,-0.0146,-0.0166,-0.0176,-0.0242,-0.0277,-0.0286,-0.0331,-0.0348,-0.035,-0.0388,-0.042,-0.0483,-0.0489,-0.0498,-0.0493,-0.0555,-0.0553,-0.0552,-0.0498,-0.0491,-0.0484,0,0,0,0,0,0,-0.0084,-0.0154,-0.0177,-0.0193,-0.0229,-0.0289,-0.0292,-0.0322,-0.0353,-0.0357,-0.0412,-0.0424,-0.0441,-0.047,-0.0474,-0.0498,-0.0523,-0.0523,-0.0479,-0.0473,-0.0467,-0.046,-0.0521,0,0,0,0,0,-0.0072,-0.0094,-0.0154,-0.0163,-0.0179,-0.0232,-0.0249,-0.0281,-0.032,-0.0335,-0.0375,-0.0412,-0.0441,-0.0458,-0.0488,-0.05,-0.0514,-0.0501,-0.0495,-0.049,-0.049,-0.0499,-0.0495,-0.0545,-0.0545,-0.0545,0,0,-0.0047,-0.0088,-0.0099,-0.0151,-0.0182,-0.0204,-0.0245,-0.0266,-0.0283,-0.0339,-0.0363,-0.0393,-0.0438,-0.0456,-0.0466,-0.048,-0.0479,-0.0488,-0.0484,-0.0486,-0.0497,-0.0492,-0.0488,-0.0544,-0.0544,-0.0544,0,0,-0.0013,-0.0046,-0.0057,-0.0087,-0.0134,-0.017,-0.0172,-0.0228,-0.025,-0.0276,-0.0318,-0.0339,-0.0387,-0.0418,-0.0439,-0.0417,-0.0448,-0.0425,-0.0397,-0.0405,-0.0401,-0.0398,-0.0391,-0.0388,-0.0425,-0.0424,-0.0424,0,0.0024,-0.0011,-0.0059,-0.0078,-0.01,-0.0151,-0.0163,-0.0191,-0.0245,-0.0259,-0.0274,-0.0336,-0.0369,-0.0395,-0.039,-0.0406,-0.0411,-0.0419,-0.0398,-0.0395,-0.0393,-0.0387,-0.0384,-0.0421,-0.0422,-0.0422,-0.0422,0,0.0037,0.0013,0.001,-0.0041,-0.0064,-0.0079,-0.013,-0.0147,-0.0177,-0.021,-0.0236,-0.0278,-0.0318,-0.0326,-0.0355,-0.0357,-0.0364,-0.0388,-0.0414,-0.0384,-0.038,-0.0377,-0.0417,-0.0418,-0.0419,-0.042,0,0,0.0109,0.0031,0.003,0.0006,-0.005,-0.0069,-0.0087,-0.0126,-0.0139,-0.0175,-0.0192,-0.0232,-0.0254,-0.0279,-0.0312,-0.0319,-0.03,-0.0343,-0.0344,-0.0334,-0.0305,-0.0287,-0.0284,-0.0321,-0.0321,-0.032,-0.0302,0,0.0134,0.0099,0.0055,0.0034,0.0011,-0.0038,-0.0054,-0.009,-0.0122,-0.0147,-0.0183,-0.021,-0.0237,-0.0253,-0.0262,-0.03,-0.0295,-0.0302,-0.0338,-0.0339,-0.0325,-0.0281,-0.0262,-0.0243,-0.03,-0.03,-0.03,0,0.0158,0.0125,0.0102,0.0048,0.0036,0.0023,-0.0016,-0.0039,-0.0081,-0.0104,-0.0132,-0.0167,-0.019,-0.0213,-0.0245,-0.0249,-0.0266,-0.0287,-0.0287,-0.0293,-0.0317,-0.0286,-0.0237,-0.0234,-0.0297,-0.0297,-0.0297,0,0.0212,0.0162,0.0141,0.0122,0.0058,0.005,0.0023,-0.002,-0.0041,-0.0075,-0.0089,-0.0126,-0.0146,-0.0173,-0.0218,-0.0231,-0.0246,-0.0272,-0.0266,-0.0265,-0.0267,-0.0266,-0.0221,-0.0277,-0.0277,-0.0277,-0.0277,0,0.0245,0.0233,0.0165,0.0152,0.0137,0.0087,0.0073,0.0041,0.0003,-0.0017,-0.0062,-0.0079,-0.0137,-0.0162,-0.0197,-0.0219,-0.0227,-0.0247,-0.0256,-0.0244,-0.0241,-0.0256,-0.0259,-0.0276,-0.0277,-0.0277,-0.0277,0,0.0302,0.0257,0.0231,0.0172,0.0157,0.0149,0.0098,0.0084,0.0049,0.0024,0.0015,-0.004,-0.0071,-0.0119,-0.0164,-0.0188,-0.0204,-0.0219,-0.019,-0.0196,-0.0187,-0.0187,-0.015,-0.0148,-0.0204,-0.0203,-0.0203,0,0.0326,0.0315,0.0255,0.0239,0.0213,0.0187,0.0166,0.0116,0.0095,0.0046,0.0037,0.0002,-0.0029,-0.0077,-0.0121,-0.0157,-0.0173,-0.0158,-0.0179,-0.0166,-0.0174,-0.0173,-0.0175,-0.0153,-0.0152,-0.0151,-0.0151,0,0.0372,0.035,0.0321,0.0283,0.0259,0.0228,0.0194,0.0183,0.0125,0.0104,0.0071,0.0047,0.0,-0.0034,-0.0076,-0.0105,-0.0137,-0.0144,-0.0144,-0.0131,-0.0114,-0.0124,-0.0177,-0.0144,-0.0145,-0.0146,-0.0146,-0.0146,0.0412,0.04,0.0356,0.0325,0.0294,0.0264,0.0247,0.021,0.0182,0.014,0.0111,0.008,0.0037,-0.0022,-0.0049,-0.0075,-0.0089,-0.009,-0.009,-0.009,-0.0085,-0.011,-0.0083,-0.0083,-0.0083,-0.0084,-0.0084,0,0.0455,0.0425,0.0397,0.035,0.0326,0.0297,0.0258,0.0239,0.0212,0.0175,0.0146,0.0107,0.0073,0.0026,-0.0011,-0.0023,-0.0039,-0.0031,-0.0031,-0.0037,-0.007,-0.0066,-0.0018,-0.0018,-0.0018,-0.0018,-0.0018,-0.0018,0.0475,0.0453,0.0425,0.0387,0.0356,0.0325,0.0305,0.0276,0.0246,0.0206,0.0177,0.0147,0.0105,0.0064,0.0031,0.0018,0.0006,0.0019,0.0001,-0.0029,-0.0035,-0.0041,-0.0037,0.0017,0.0017,0.0036,0.0036,0.0036]}]]